[[{"header":{"parameterUnit":"m.s-1","parameterCategory":1,"la1":30.2991,"la2":30.254,"lo1":-89.0895,"lo2":-89.0444,"dy":0.0017,"dx":0.0017,"nx":28,"ny":28,"refTime":"2025-05-19T03:00:00:Z","depth":0,"parameterNumber":2,"parameterNumberName":"U-component_of_WINDS"},"data":[0,0,0,0,0,0,0,0,0,0,0,0,0,0,0,0,0,0,0,0,0,0,0,0,0,0,0,0,0,0,0,0,0,0,0,0,0,0,0,0,0,0,0,0,0,0,0,0,0,0,0,0,0,0,0,0,0,0,3.7136,3.7137,0,3.7211,3.7212,3.7213,3.719,3.7188,3.7186,3.7185,3.7261,3.7264,3.7268,0,0,0,0,0,0,0,0,0,0,0,0,0,3.6971,3.6974,3.7136,3.7137,3.7138,3.7211,3.7212,3.7213,3.719,3.7188,3.7186,3.7184,3.726,3.7264,3.7268,0,0,0,0,0,0,0,0,0,0,0,0,0,3.7044,3.6975,3.7136,3.7135,3.7136,3.7211,3.7212,3.7214,3.719,3.7188,3.7185,3.7183,3.7259,3.7264,3.7269,3.7349,0,0,3.7285,3.7287,0,0,0,0,0,0,0,0,3.704,3.705,3.7134,3.7135,3.7136,3.7189,3.7182,3.7259,3.7191,3.717,3.7185,3.7182,3.7239,3.7246,3.7265,3.7353,3.7356,3.7285,3.7289,3.7291,3.7292,0,0,0,0,0,0,0,3.7035,3.7047,3.7166,3.7135,3.7137,3.7131,3.7138,3.7197,3.7217,3.7171,3.717,3.7179,3.7239,3.726,3.7267,3.7357,3.7285,3.729,3.7293,3.7295,3.7515,3.7517,0,0,0,0,0,0,3.703,3.7043,3.7163,3.7168,3.7081,3.7136,3.7144,3.7174,3.7216,3.722,3.7181,3.7178,3.7252,3.726,3.7269,3.7365,3.7291,3.7296,3.7299,3.7512,3.7515,3.7518,0,0,0,0,0,0,3.7026,3.7041,3.716,3.7105,3.712,3.7141,3.7175,3.7177,3.7198,3.7223,3.7227,3.7199,3.7251,3.7262,3.733,3.7367,3.7298,3.7303,3.7509,3.7513,3.7517,3.7558,0,0,0,0,0,0,3.7021,3.7039,3.707,3.7106,3.7123,3.722,3.7177,3.718,3.7207,3.7203,3.7241,3.7245,3.725,3.7322,3.7335,3.7373,3.7307,3.7506,3.7511,3.7516,3.7554,3.7563,3.7572,0,0,0,0,0,3.7016,3.7079,3.7072,3.7086,3.7162,3.7222,3.7231,3.7236,3.721,3.7241,3.7258,3.7244,3.7362,3.7329,3.7343,3.7384,3.7503,3.7509,3.7515,3.755,3.7561,3.7571,0,0,0,0,0,0,3.7046,3.7083,3.7076,3.7153,3.7184,3.7218,3.7257,3.7248,3.7288,3.7282,3.7286,3.7295,3.7364,3.7381,3.7344,3.7464,3.7429,3.7438,3.745,3.7461,3.747,3.7463,3.7311,0,0,0,0,0,3.7062,3.7108,3.7138,3.7202,3.7219,3.7235,3.7262,3.7262,3.7295,3.7308,3.733,3.7362,3.7406,3.7435,3.7477,3.7557,3.7564,3.7592,3.7601,3.7609,3.7616,3.7658,3.7671,3.7538,3.7538,3.7538,0,0,3.7094,3.712,3.7149,3.7209,3.7234,3.7281,3.7246,3.7298,3.7332,3.7316,3.7381,3.7398,3.7434,3.7508,3.7542,3.7525,3.7654,3.7616,3.7622,3.7625,3.7666,3.7678,3.7689,3.7542,3.7541,3.7541,0,0,3.7177,3.7202,3.7258,3.7284,3.7322,3.7333,3.7347,3.7382,3.7393,3.7458,3.7447,3.7489,3.7565,3.7591,3.7614,3.7709,3.7697,3.7723,3.7769,3.781,3.7821,3.783,3.7862,3.7874,3.7731,3.7731,3.7731,0,3.7212,3.7282,3.7288,3.734,3.7367,3.7356,3.7412,3.7437,3.7487,3.7505,3.7486,3.7582,3.7606,3.7685,3.7708,3.7728,3.7743,3.7717,3.7819,3.7828,3.7837,3.7867,3.788,3.7733,3.7733,3.7733,3.7733,0,3.7323,3.7373,3.7414,3.7462,3.7494,3.7548,3.7562,3.7593,3.7592,3.7605,3.7672,3.7701,3.7748,3.7768,3.7767,3.7847,3.7835,3.7818,3.7781,3.7852,3.7881,3.7893,3.7737,3.7736,3.7736,3.7735,0,0,3.7424,3.7477,3.7492,3.7514,3.7556,3.7594,3.7648,3.7695,3.7722,3.7757,3.7802,3.7868,3.7852,3.7878,3.7881,3.7918,3.7989,3.7895,3.7896,3.791,3.8078,3.8089,3.8103,3.7983,3.7985,3.7987,3.8074,0,3.7509,3.7604,3.7612,3.7697,3.7742,3.7733,3.778,3.7811,3.7825,3.7866,3.7881,3.7927,3.7904,3.7919,3.7956,3.7973,3.8023,3.7967,3.8023,3.8025,3.8012,3.8118,3.813,3.8211,3.8086,3.8088,3.8089,0,3.762,3.7659,3.775,3.7786,3.7805,3.7847,3.7891,3.793,3.7965,3.7973,3.8003,3.8001,3.8056,3.802,3.8096,3.8058,3.8082,3.8094,3.8097,3.8101,3.8059,3.8122,3.8237,3.8248,3.8107,3.8106,3.8104,0,3.7683,3.7758,3.7822,3.7841,3.7886,3.7915,3.7935,3.7968,3.7996,3.8035,3.8053,3.8097,3.8121,3.8156,3.8166,3.8139,3.8241,3.8206,3.8247,3.8247,3.8267,3.8265,3.8385,3.8287,3.8286,3.8286,3.8286,0,3.7775,3.783,3.7851,3.7889,3.7951,3.7959,3.802,3.8038,3.8068,3.8109,3.8105,3.8144,3.8156,3.8198,3.8206,3.8267,3.8278,3.8285,3.8286,3.8284,3.8283,3.8298,3.8291,3.8289,3.8289,3.8288,3.8287,0,3.7854,3.787,3.7938,3.7975,3.7986,3.803,3.8061,3.8098,3.8113,3.8166,3.8179,3.8201,3.8249,3.8263,3.8322,3.8327,3.8398,3.8395,3.8386,3.8385,3.8425,3.842,3.8557,3.8574,3.8467,3.8468,3.8469,0,3.791,3.7953,3.7995,3.8023,3.8044,3.8089,3.8118,3.8129,3.8159,3.8202,3.8234,3.8283,3.8321,3.84,3.842,3.8465,3.8462,3.8507,3.8468,3.8465,3.846,3.8456,3.846,3.8513,3.8514,3.8515,3.8516,0,3.8009,3.8015,3.8057,3.8102,3.8137,3.8173,3.8207,3.823,3.8246,3.828,3.833,3.836,3.8421,3.8468,3.8513,3.8533,3.8527,3.8528,3.854,3.8537,3.8529,3.8532,3.8403,3.8524,3.8523,3.8523,3.8522,3.8522,3.8077,3.8114,3.8149,3.8196,3.8223,3.8256,3.8293,3.8312,3.8354,3.8404,3.8408,3.8462,3.8496,3.8557,3.858,3.8621,3.8608,3.8625,3.8629,3.8633,3.8635,3.8525,3.863,3.863,3.863,3.863,3.8629,0,3.8173,3.8196,3.8239,3.8288,3.8325,3.8317,3.8356,3.8386,3.8434,3.8467,3.8506,3.8563,3.861,3.8635,3.8681,3.871,3.8708,3.8722,3.8718,3.8723,3.8645,3.863,3.8722,3.8722,3.8722,3.8722,3.8722,3.8722,3.8227,3.8289,3.83,3.8375,3.8397,3.845,3.8473,3.8503,3.8529,3.8593,3.8632,3.8649,3.8679,3.8727,3.877,3.8776,3.8792,3.8807,3.8811,3.8738,3.8728,3.8719,3.8704,3.8811,3.8811,3.8884,3.8885,3.8886]},{"header":{"parameterUnit":"m.s-1","parameterCategory":1,"la1":30.2991,"la2":30.254,"lo1":-89.0895,"lo2":-89.0444,"dy":0.0017,"dx":0.0017,"nx":28,"ny":28,"refTime":"2025-05-19T03:00:00:Z","depth":0,"parameterNumber":3,"parameterNumberName":"V-component_of_WINDS"},"data":[0,0,0,0,0,0,0,0,0,0,0,0,0,0,0,0,0,0,0,0,0,0,0,0,0,0,0,0,0,0,0,0,0,0,0,0,0,0,0,0,0,0,0,0,0,0,0,0,0,0,0,0,0,0,0,0,0,0,5.1417,5.142,0,5.1669,5.1671,5.1674,5.1699,5.1696,5.1694,5.1691,5.1951,5.196,5.1969,0,0,0,0,0,0,0,0,0,0,0,0,0,5.096,5.0969,5.1417,5.142,5.1423,5.1668,5.1672,5.1675,5.1699,5.1696,5.1693,5.169,5.1947,5.1959,5.197,0,0,0,0,0,0,0,0,0,0,0,0,0,5.118,5.0971,5.1417,5.1465,5.1472,5.1667,5.1672,5.1676,5.17,5.1696,5.1692,5.1688,5.1944,5.1957,5.1971,5.2136,0,0,5.2014,5.202,0,0,0,0,0,0,0,0,5.1167,5.1197,5.1455,5.1462,5.147,5.1648,5.1606,5.183,5.1701,5.1613,5.1691,5.1687,5.1853,5.1875,5.193,5.2149,5.216,5.2015,5.2024,5.203,5.2034,0,0,0,0,0,0,0,5.1152,5.1186,5.1517,5.1458,5.1468,5.1475,5.1502,5.1648,5.1752,5.1621,5.1623,5.1652,5.1857,5.1917,5.1937,5.2164,5.2015,5.2027,5.2036,5.2042,5.2531,5.2535,0,0,0,0,0,0,5.1128,5.1173,5.1509,5.1524,5.1306,5.1486,5.1516,5.1595,5.1751,5.1771,5.1656,5.1653,5.1895,5.192,5.1946,5.215,5.203,5.2043,5.2051,5.2526,5.2532,5.2537,0,0,0,0,0,0,5.1118,5.1157,5.1499,5.135,5.1393,5.1498,5.1587,5.1602,5.1662,5.1777,5.1796,5.1698,5.1893,5.1926,5.2089,5.2159,5.2049,5.2062,5.2521,5.2528,5.2534,5.2559,0,0,0,0,0,0,5.1105,5.1154,5.1217,5.1351,5.1401,5.1637,5.1591,5.161,5.1686,5.1685,5.1822,5.1841,5.1892,5.2068,5.2103,5.2177,5.2073,5.2515,5.2524,5.2532,5.2553,5.2566,5.2578,0,0,0,0,0,5.1088,5.1214,5.122,5.126,5.1483,5.1641,5.167,5.1726,5.1692,5.1757,5.183,5.1836,5.2146,5.2084,5.2124,5.2203,5.2511,5.2521,5.2531,5.2547,5.2564,5.2578,0,0,0,0,0,0,5.1087,5.1233,5.1241,5.1414,5.1515,5.1645,5.1728,5.1742,5.1855,5.1849,5.1914,5.1945,5.2106,5.2171,5.21,5.2371,5.2325,5.2343,5.2323,5.234,5.2352,5.2334,5.2085,0,0,0,0,0,5.1107,5.1223,5.1344,5.1485,5.1535,5.1623,5.1694,5.1728,5.1836,5.1879,5.1965,5.2069,5.219,5.2268,5.2386,5.2562,5.2593,5.2636,5.2648,5.2658,5.2674,5.2772,5.2793,5.257,5.257,5.257,0,0,5.1149,5.1243,5.1312,5.1487,5.1569,5.1689,5.1659,5.1786,5.1875,5.1899,5.2058,5.2124,5.2245,5.2415,5.2494,5.2474,5.2742,5.2671,5.2678,5.2689,5.2785,5.2806,5.2825,5.2577,5.2576,5.2575,0,0,5.1288,5.137,5.1497,5.1579,5.1704,5.1762,5.1792,5.192,5.1965,5.2126,5.2146,5.2253,5.2459,5.2545,5.2616,5.2786,5.2796,5.2822,5.2888,5.2984,5.3001,5.3017,5.3079,5.31,5.2837,5.2838,5.2838,0,5.1325,5.1504,5.156,5.1687,5.1764,5.179,5.1919,5.1997,5.2154,5.2206,5.2181,5.2441,5.2525,5.2715,5.2757,5.2813,5.285,5.2808,5.2994,5.301,5.3026,5.3086,5.3109,5.284,5.284,5.2839,5.2839,0,5.1544,5.1669,5.1756,5.1906,5.1993,5.212,5.2196,5.2277,5.2304,5.2364,5.2528,5.2628,5.2767,5.2814,5.2842,5.301,5.2993,5.298,5.2935,5.3049,5.3106,5.3129,5.2844,5.2843,5.2842,5.2841,0,0,5.169,5.1869,5.19,5.1969,5.2108,5.2206,5.2334,5.2469,5.2538,5.2645,5.2755,5.2929,5.2918,5.2998,5.3036,5.3119,5.3248,5.3096,5.31,5.3122,5.344,5.3449,5.3475,5.3255,5.326,5.3263,5.343,0,5.1845,5.2074,5.2128,5.2325,5.2441,5.2467,5.2579,5.2677,5.2737,5.2844,5.2911,5.3033,5.3009,5.3057,5.3141,5.3215,5.3313,5.3203,5.3359,5.3364,5.3329,5.3505,5.3515,5.3668,5.3453,5.3456,5.3459,0,5.2056,5.2167,5.2376,5.25,5.255,5.265,5.2779,5.2881,5.2992,5.303,5.3119,5.3148,5.3284,5.323,5.3419,5.3343,5.341,5.3456,5.3463,5.3481,5.3419,5.3528,5.3718,5.3741,5.3495,5.3492,5.3489,0,5.2142,5.2344,5.2495,5.2553,5.2701,5.2771,5.2836,5.2944,5.3021,5.3134,5.3185,5.3311,5.3381,5.3478,5.3541,5.3496,5.3725,5.3676,5.376,5.3759,5.3808,5.3805,5.4013,5.385,5.3849,5.3849,5.3848,0,5.231,5.2437,5.2536,5.2629,5.2772,5.2833,5.2973,5.3038,5.3134,5.3241,5.327,5.337,5.3446,5.3556,5.3606,5.3755,5.3786,5.3821,5.3833,5.3819,5.3815,5.3865,5.3856,5.3855,5.3854,5.3852,5.3851,0,5.2431,5.2502,5.2669,5.2795,5.283,5.293,5.3039,5.313,5.319,5.3325,5.336,5.3455,5.3586,5.3658,5.3822,5.3856,5.4023,5.4028,5.3985,5.399,5.4071,5.4062,5.4319,5.4356,5.4167,5.4169,5.417,0,5.2534,5.2632,5.2769,5.2842,5.2908,5.3026,5.3105,5.3169,5.325,5.3385,5.3461,5.3593,5.3703,5.3912,5.3996,5.4122,5.4132,5.4213,5.4151,5.4134,5.4134,5.4128,5.4139,5.4224,5.4226,5.4227,5.4228,0,5.2709,5.2739,5.2852,5.2978,5.3071,5.3173,5.3274,5.3333,5.3413,5.3504,5.3638,5.3723,5.3891,5.4023,5.4156,5.4224,5.424,5.4247,5.4273,5.4261,5.4232,5.425,5.4016,5.4241,5.424,5.4239,5.4238,5.4238,5.2825,5.2914,5.3024,5.3149,5.3231,5.3325,5.3417,5.3488,5.3601,5.3743,5.3774,5.3916,5.4025,5.4205,5.4277,5.4389,5.4373,5.4411,5.4421,5.443,5.4434,5.4213,5.4413,5.4413,5.4413,5.4413,5.4412,0,5.3003,5.3075,5.3189,5.3329,5.3427,5.3433,5.3545,5.3627,5.3752,5.3852,5.3959,5.4114,5.4242,5.4335,5.4466,5.4538,5.4549,5.4571,5.4567,5.4582,5.444,5.4404,5.456,5.456,5.456,5.4559,5.4559,5.4559,5.3107,5.3257,5.33,5.3492,5.3564,5.3703,5.3766,5.3853,5.3934,5.4105,5.4211,5.4271,5.4369,5.4507,5.4625,5.4649,5.4696,5.4717,5.4742,5.4608,5.4592,5.4577,5.4544,5.4727,5.4727,5.4876,5.4877,5.4878]}]]